sat.trackr.live / text

‹ back to catalog

O3B FM11

NORAD 40349 · 2014-083B

PAYLOAD ACTIVE UNKNOWN

§ Identity

Operator
Country
O3B
Launch date
2014-12-18
Launch site
FRGUI
Launch vehicle
Mass (kg)
RCS (m²)
12.26

Purposes: comms

External: N2YO · Heavens-Above · Gunter

§ Orbital elements

Epoch: 2026-09-19T22:05:02.319072Z

Period
287.93 min
Inclination
0.0538°
Eccentricity
0.0002170
Mean motion
5.00115588 rev/d
Perigee alt
8,062.8 km
Apogee alt
8,069.0 km
Semi-major
14,444.0 km
B*
0.0000e+0
RAAN
348.1778°
Arg perigee
176.0806°
Mean anomaly
195.7506°
Rev number
21,465

§ Raw data

O3B FM111 40349U 14083B   26262.92016573 -.00000027  00000+0  00000+0 0  99952 40349   0.0538 348.1778 0002170 176.0806 195.7506  5.00115588214658

JSON: /api/v1/satellites/40349 · /tle

For live sub-satellite position, see the globe view (requires WebGL).

§ Visibility from observer

Set your observer location to see the next 7 days of passes ≥ 10°. The values pass through the URL so the page stays shareable.

No JS? Fill the form by hand. The geolocation button needs JavaScript.